Location: アルンシュタイン
(50.0000°N, 10.0000°E)
Time: 18:01:45
(UTC+02:00)

Vanguard 1 Rocket - Visible Passes

Search period start: 11 September 2024 00:00
Search period end: 21 September 2024 00:00
Orbit: 649 x 4220 km, 34.3° (Epoch: 10 September)

Date Brightness Start Highest point End Pass type
(mag) Time Alt. Az. Time Alt. Az. Time Alt. Az.
11 Sep 11.0 03:04:03 10° SSE 03:12:12 15° ESE 03:22:15 10° E visible
11 Sep 10.9 05:21:16 10° SSW 05:37:11 39° SSE 05:59:16 10° E visible
12 Sep 10.7 04:12:08 13° S 04:23:54 29° SE 04:42:22 10° E visible
13 Sep 10.8 03:04:06 13° SSE 03:11:33 18° SE 03:23:51 10° E visible
13 Sep 10.7 05:21:18 10° SW 05:36:49 42° SSE 05:59:20 10° E visible
14 Sep 10.5 04:13:14 17° S 04:23:26 33° SE 04:42:38 10° E visible
15 Sep 10.6 03:05:10 17° SSE 03:10:59 22° SE 03:24:47 10° E visible
15 Sep 10.6 05:22:21 13° SW 05:36:34 45° SSE 05:59:18 10° E visible
16 Sep 11.0 01:57:03 11° SE 01:59:21 11° ESE 02:03:15 10° ESE visible
16 Sep 10.3 04:14:14 21° SSW 04:23:06 36° SE 04:42:43 10° E visible
17 Sep 10.4 03:06:08 22° SSE 03:10:34 25° SE 03:25:18 10° E visible
17 Sep 10.4 05:23:19 15° SW 05:36:24 46° SSE 05:59:10 10° E visible
18 Sep 10.8 01:58:00 14° SE 01:58:51 14° SE 02:06:04 10° E visible
18 Sep 10.2 04:15:11 25° SSW 04:22:53 38° SSE 04:42:40 10° E visible
19 Sep 10.2 03:07:03 26° SSE 03:10:17 28° SE 03:25:35 10° E visible
19 Sep 10.3 05:24:15 17° SW 05:36:19 47° SSE 05:58:57 10° ESE visible
20 Sep 10.6 01:58:55 17° SE 01:58:55 17° SE 02:07:27 10° E visible
20 Sep 10.0 04:16:06 28° SSW 04:22:47 40° SSE 04:42:32 10° E visible
